This demonstration page uses our WeatherBlox Daily Observations layout. Learn more.

Left ArrowRight Arrow

34.74481, -87.66753

Hourly Observations for March 17, 2021

Temp ( °F °C ) Dew Point ( °F °C ) Humidity (%) Winds ( mph kmh ) Pressure ( in mb ) Visibility ( mi km ) Precip ( " mm )
12:53 am 00:53 Cloudy 66 18.9 61 16.1 84 84 ESE 6 9 29.92 1013 9 14 0.00 0.00
1:53 am 01:53 Cloudy 66 18.9 61 16.1 84 84 SSE 5 7 29.93 1013 9 14 0.00 0.00
2:53 am 02:53 Cloudy 66 18.9 61 16.1 84 84 ESE 8 13 29.90 1013 9 14 0.00 0.00
3:53 am 03:53 Cloudy with Mist and Fog 64 17.8 60 15.6 87 87 SE 7 11 29.89 1012 2 3 0.00 0.00
4:00 am 04:00 Cloudy with Mist and Fog 64 17.8 60 15.6 87 87 SE 5 7 29.90 1013 2 3 0.00 0.00
4:35 am 04:35 Cloudy with Mist and Fog 63 17.2 60 15.6 90 90 ESE 6 9 29.93 1014 2 3 0.00 0.00
4:42 am 04:42 Cloudy with Mist and Fog 63 17.2 59 15 87 87 E 5 7 29.93 1014 2 3 0.00 0.00
4:53 am 04:53 Cloudy with Mist and Fog 63 17.2 59 15 87 87 E 7 11 29.91 1013 3 5 0.00 0.00
5:03 am 05:03 Cloudy with Mist and Fog 63 17.2 59 15 87 87 ENE 7 11 29.91 1013 3 4 0.00 0.00
5:16 am 05:16 Cloudy with Light Rain 63 17.2 59 15 87 87 Calm 29.91 1013 2 3 0.01 0.25
5:28 am 05:28 Cloudy with Light Rain 63 17.2 60 15.6 90 90 SE 5 7 29.91 1013 3 5 0.01 0.25
5:42 am 05:42 Cloudy with Light Rain 64 17.8 59 15 84 84 S 6 9 29.93 1014 4 6 0.03 0.76
5:53 am 05:53 Cloudy with Light Rain 64 17.8 59 15 84 84 Calm 29.92 1013 3 5 0.05 1.27
6:08 am 06:08 Cloudy with Nearby Thunderstorms 64 17.8 59 15 84 84 SE 7 11 29.91 1013 4 6 0.02 0.51
6:16 am 06:16 Cloudy with Thunderstorms 64 17.8 59 15 84 84 ESE 7 11 29.90 1013 4 6 0.03 0.76
6:31 am 06:31 Cloudy with Light Rain 64 17.8 60 15.6 87 87 ESE 8 13 29.88 1012 4 6 0.06 1.52
6:53 am 06:53 Cloudy with Light Rain 63 17.2 59 15 87 87 E 8 13 29.86 1011 5 8 0.07 1.78
7:09 am 07:09 Cloudy with Nearby Thunderstorms 63 17.2 59 15 87 87 SE 10 17 29.86 1011 6 10 0.01 0.25
7:18 am 07:18 Cloudy with Nearby Thunderstorms 63 17.2 59 15 87 87 SE 9 15 29.88 1012 6 10 0.01 0.25
7:34 am 07:34 Cloudy with Thunderstorms 63 17.2 59 15 87 87 WSW 9 15 29.92 1013 3 4 0.01 0.25
7:45 am 07:45 Cloudy with Strong Thunderstorms 64 17.8 59 15 84 84 ESE 9 15 29.87 1012 1 1 0.03 0.76
7:53 am 07:53 Cloudy with Strong Thunderstorms 64 17.8 60 15.6 87 87 E 6 9 29.86 1011 1 2 0.06 1.52
7:56 am 07:56 Cloudy with Nearby Thunderstorms 64 17.8 60 15.6 87 87 ESE 8 13 29.87 1012 2 2 0.01 0.25
8:03 am 08:03 Cloudy with Nearby Thunderstorms 64 17.8 60 15.6 87 87 SE 12 19 29.86 1011 3 5 0.04 1.02
8:09 am 08:09 Cloudy with Nearby Thunderstorms 64 17.8 59 15 84 84 SE 10 17 29.86 1011 2 3 0.06 1.52
8:15 am 08:15 Cloudy with Light Rain 64 17.8 60 15.6 87 87 SSE 5 7 29.85 1011 2 3 0.07 1.78
8:18 am 08:18 Cloudy with Nearby Thunderstorms 64 17.8 60 15.6 87 87 ESE 8 13 29.84 1011 3 5 0.08 2.03
8:30 am 08:30 Cloudy with Strong Thunderstorms 64 17.8 59 15 84 84 E 13 20 29.86 1011 1 2 0.12 3.05
8:34 am 08:34 Cloudy with Strong Thunderstorms 64 17.8 59 15 84 84 E 12 19 29.87 1012 1 1 0.13 3.30
8:39 am 08:39 Cloudy with Thunderstorms 64 17.8 59 15 84 84 SE 9 15 29.91 1013 1 2 0.15 3.81
8:53 am 08:53 Cloudy with Strong Thunderstorms 64 17.8 59 15 84 84 SE 9 15 29.91 1013 1 1 0.20 5.08
9:15 am 09:15 Cloudy with Strong Thunderstorms 63 17.2 59 15 87 87 E 14 22 29.89 1012 2 3 0.11 2.79
9:25 am 09:25 Cloudy with Strong Thunderstorms 63 17.2 58 14.4 84 84 E 14 22 29.90 1013 2 3 0.15 3.81
9:32 am 09:32 Cloudy with Strong Thunderstorms 63 17.2 58 14.4 84 84 E 10 17 29.90 1013 1 2 0.19 4.83
9:49 am 09:49 Cloudy with Thunderstorms 63 17 57 14 83 83 E 17 28 29.90 1013 3 5 0.26 6.60
9:53 am 09:53 Cloudy with Thunderstorms 62 16.7 56 13.3 80 80 E 13 20 29.91 1013 3 4 0.28 7.11
10:01 am 10:01 Cloudy with Nearby Thunderstorms 62 16.7 56 13.3 80 80 ESE 6 9 29.92 1013 3 5 0.04 1.02
10:13 am 10:13 Cloudy with Light Rain 62 16.7 57 13.9 84 84 E 5 7 29.93 1014 6 10 0.10 2.54
10:36 am 10:36 Cloudy with Haze 62 16.7 56 13.3 80 80 E 10 17 29.93 1014 3 5 0.22 5.59
10:47 am 10:47 Cloudy with Haze 63 17 57 14 83 83 ENE 6 9 29.93 1014 3 4 0.28 7.11
10:53 am 10:53 Cloudy with Haze 62 16.7 57 13.9 84 84 NE 7 11 29.93 1014 3 4 0.31 7.87
11:04 am 11:04 Cloudy with Haze 61 16.1 56 13.3 84 84 NNE 7 11 29.95 1014 2 3 0.06 1.52
11:34 am 11:34 Cloudy with Light Rain 61 16.1 56 13.3 84 84 NE 13 20 29.94 1014 2 3 0.20 5.08
11:39 am 11:39 Cloudy with Light Rain 61 16.1 56 13.3 84 84 NE 13 20 29.94 1014 3 5 0.23 5.84
11:49 am 11:49 Cloudy with Haze 61 16 55 13 83 83 ENE 10 17 29.93 1013 3 4 0.27 6.86
11:53 am 11:53 Cloudy with Haze 62 16.7 57 13.9 84 84 ENE 9 15 29.92 1013 3 4 0.29 7.37
11:59 am 11:59 Cloudy with Haze 62 16.7 57 13.9 84 84 E 7 11 29.92 1013 3 4 0.03 0.76
12:14 pm 12:14 Cloudy with Haze 62 16.7 57 13.9 84 84 E 9 15 29.90 1013 2 3 0.09 2.29
12:33 pm 12:33 Cloudy with Haze 63 17.2 58 14.4 84 84 E 10 17 29.87 1012 3 5 0.17 4.32
12:53 pm 12:53 Cloudy with Haze 63 17.2 58 14.4 84 84 E 12 19 29.84 1011 6 10 0.20 5.08
1:32 pm 13:32 Cloudy with Haze 63 17.2 58 14.4 84 84 ESE 16 26 29.83 1010 5 8 0.00 0.00
1:48 pm 13:48 Cloudy with Thunderstorms 63 17 57 14 83 83 E 14 22 29.81 1010 5 8 0.00 0.00
1:53 pm 13:53 Cloudy with Thunderstorms 62 16.7 57 13.9 84 84 E 13 20 29.82 1010 5 8 0.00 0.00
1:59 pm 13:59 Cloudy with Thunderstorms 62 16.7 58 14.4 86 86 ESE 16 26 29.83 1010 2 2 0.01 0.25
2:13 pm 14:13 Cloudy with Nearby Thunderstorms 62 16.7 57 13.9 84 84 ESE 12 19 29.81 1010 3 5 0.04 1.02
2:24 pm 14:24 Cloudy with Mist and Fog 62 16.7 58 14.4 86 86 E 13 20 29.80 1009 6 10 0.06 1.52
2:53 pm 14:53 Cloudy 64 17.8 58 14.4 81 81 E 9 15 29.79 1009 10 16 0.10 2.54
3:53 pm 15:53 Cloudy 64 17.8 59 15 84 84 ESE 9 15 29.76 1008 8 13 0.05 1.27
4:03 pm 16:03 Cloudy with Thunderstorms 64 17.8 59 15 84 84 E 8 13 29.77 1008 6 10 0.01 0.25
4:16 pm 16:16 Cloudy with Strong Thunderstorms 64 17.8 59 15 84 84 undefined N/A 29.81 1010 2 2 0.02 0.51
4:21 pm 16:21 Cloudy with Strong Thunderstorms 64 17.8 59 15 84 84 N 9 15 29.79 1009 1 1 0.03 0.76
4:27 pm 16:27 Cloudy with Strong Thunderstorms 64 17.8 60 15.6 87 87 VRB 5 7 29.78 1009 1 2 0.03 0.76
4:34 pm 16:34 Cloudy with Thunderstorms 66 18.9 61 16.1 84 84 E 7 11 29.77 1008 2 3 0.04 1.02
4:39 pm 16:39 Cloudy with Thunderstorms 65 18.3 60 15.6 84 84 SE 5 7 29.76 1008 4 6 0.04 1.02
4:42 pm 16:42 Cloudy with Nearby Thunderstorms 65 18.3 60 15.6 84 84 SE 5 7 29.76 1008 4 6 0.05 1.27
4:51 pm 16:51 Cloudy with Nearby Thunderstorms 64 18 61 16 88 88 ESE 8 13 29.74 1007 10 16 0.05 1.27
4:53 pm 16:53 Cloudy with Nearby Thunderstorms 66 18.9 60 15.6 81 81 ESE 10 17 29.74 1007 10 16 0.06 1.52
4:59 pm 16:59 Cloudy with Rain 66 18.9 60 15.6 81 81 ESE 9 15 29.74 1007 5 8 0.00 0.00
5:19 pm 17:19 Cloudy 65 18.3 60 15.6 84 84 NNE 9 15 29.75 1007 10 16 0.02 0.51
5:53 pm 17:53 Cloudy 65 18.3 60 15.6 84 84 ENE 9 15 29.72 1007 10 16 0.05 1.27
6:02 pm 18:02 Cloudy 65 18.3 60 15.6 84 84 ENE 10 17 29.72 1006 10 16 0.01 0.25
6:23 pm 18:23 Cloudy with Heavy Rain 65 18.3 60 15.6 84 84 E 8 13 29.72 1006 2 3 0.03 0.76
6:39 pm 18:39 Cloudy with Light Rain 65 18.3 60 15.6 84 84 E 9 15 29.73 1007 3 5 0.04 1.02
6:53 pm 18:53 Cloudy 65 18.3 60 15.6 84 84 E 8 13 29.71 1006 10 16 0.06 1.52
7:06 pm 19:06 Cloudy 65 18.3 61 16.1 87 87 E 6 9 29.71 1006 10 16 0.01 0.25
7:48 pm 19:48 Cloudy with Nearby Thunderstorms 66 19 61 16 83 83 ENE 8 13 29.69 1005 10 16 0.04 1.02
7:53 pm 19:53 Cloudy with Nearby Thunderstorms 66 18.9 61 16.1 84 84 E 12 19 29.68 1005 10 16 0.04 1.02
8:00 pm 20:00 Cloudy with Thunderstorms 66 18.9 61 16.1 84 84 ENE 10 17 29.67 1005 10 16 0.00 0.00
8:29 pm 20:29 Cloudy with Strong Thunderstorms 65 18.3 60 15.6 84 84 N 13 20 29.67 1005 2 2 0.02 0.51
8:37 pm 20:37 Cloudy with Strong Thunderstorms 65 18.3 61 16.1 87 87 NNE 14 22 29.68 1005 1 2 0.03 0.76
8:43 pm 20:43 Cloudy with Nearby Thunderstorms 65 18.3 61 16.1 87 87 NNE 9 15 29.67 1005 2 3 0.04 1.02
8:50 pm 20:50 Cloudy with Strong Thunderstorms 64 18 63 17 94 94 WNW 10 17 29.73 1007 2 3 0.04 1.02
8:53 pm 20:53 Cloudy with Strong Thunderstorms 65 18.3 61 16.1 87 87 NNW 3 6 29.72 1007 1 2 0.05 1.27
9:02 pm 21:02 Cloudy with Thunderstorms 65 18.3 61 16.1 87 87 VRB 6 9 29.72 1006 2 3 0.00 0.00
9:05 pm 21:05 Cloudy with Rain 65 18.3 61 16.1 87 87 W 7 11 29.72 1006 3 5 0.00 0.00
9:14 pm 21:14 Cloudy with Nearby Thunderstorms 67 19.4 61 16.1 81 81 S 7 11 29.70 1006 4 6 0.00 0.00
9:24 pm 21:24 Cloudy with Nearby Thunderstorms 67 19.4 61 16.1 81 81 SE 6 9 29.67 1005 6 10 0.00 0.00
9:35 pm 21:35 Cloudy with Light Rain 66 18.9 60 15.6 81 81 ESE 12 19 29.65 1004 9 14 0.00 0.00
9:53 pm 21:53 Partly Cloudy 67 19.4 61 16.1 81 81 SSE 6 9 29.67 1005 10 16 0.00 0.00
10:53 pm 22:53 Mostly Cloudy 65 18.3 60 15.6 84 84 SE 3 6 29.66 1004 10 16 0.06 1.52
11:53 pm 23:53 Cloudy 65 18.3 59 15 81 81 SSE 8 13 29.62 1003 10 16 0.00 0.00

Powered by AerisWeather